{"data":{"norad_id":62481,"intl_designator":"2024-254V","name":"STARLINK-32753","alt_names":[],"object_type":"PAYLOAD","status":"ACTIVE","operator":null,"country":"US","launch_date":"2024-12-31","launch_site_code":"AFETR","launch_vehicle":null,"mission":null,"orbit_class":"UNKNOWN","rcs_meters":null,"size_class":null,"mass_kg":null,"dimensions":null,"purposes":["comms"],"wikipedia_slug":null,"has_3d_model":false,"image_url":null,"decayed_at":null,"tle_current":{"epoch":"2026-09-21T07:25:13.793952Z","epoch_age_seconds":104664,"freshness":"FRESH","line1":"1 62481U 24254V   26264.30918743 -.00007218  00000+0 -25330-3 0  9998","line2":"2 62481  43.0049 351.3344 0000929 242.8086 117.2671 15.27545650 97579","mean_motion":15.2754565,"eccentricity":9.29e-5,"inclination_deg":43.0049,"raan_deg":351.3344,"arg_perigee_deg":242.8086,"mean_anomaly_deg":117.2671,"bstar":-0.0002533,"rev_number":9757,"period_min":94.268868495027,"perigee_km":482.51454048059,"apogee_km":483.78936796829,"semimajor_km":6861.2889542244,"source":"CELESTRAK","updated_at":"2026-09-22T09:00:49.615503Z"}}}